This demonstration page uses our WeatherBlox Daily Observations layout. Learn more.

Left ArrowRight Arrow

30.21309, -93.2044

Hourly Observations for August 17, 2022

Temp ( °F °C ) Dew Point ( °F °C ) Humidity (%) Winds ( mph kmh ) Pressure ( in mb ) Visibility ( mi km ) Precip ( " mm )
12:35 am 00:35 Clear 76 24.5 73 22.7 90 90 SSW 3 6 29.93 1014 10 16 0.00 0.00
2:15 am 02:15 Clear 76 24.6 74 23.2 92 92 Calm 29.94 1014 10 16 0.00 0.00
2:35 am 02:35 Clear with Mist and Fog 76 24.4 73 23 92 92 Calm 29.94 1014 5 8 0.00 0.00
2:55 am 02:55 Clear with Mist and Fog 76 24.3 73 22.9 92 92 SW 3 6 29.94 1014 7 11 0.00 0.00
3:15 am 03:15 Clear 79 25.9 75 23.8 88 88 SW 5 7 29.94 1014 10 16 0.00 0.00
3:35 am 03:35 Clear 80 26.6 75 23.8 85 85 SW 5 7 29.94 1014 10 16 0.00 0.00
3:55 am 03:55 Clear 81 27 75 23.9 83 83 SW 5 7 29.95 1014 10 16 0.00 0.00
4:15 am 04:15 Clear 76 24.2 73 22.5 90 90 Calm 29.95 1014 7 11 0.00 0.00
4:35 am 04:35 Partly Cloudy 80 26.5 75 24 86 86 SW 5 7 29.95 1014 10 16 0.00 0.00
4:55 am 04:55 Partly Cloudy 80 26.9 75 24 84 84 SW 5 7 29.95 1014 10 16 0.00 0.00
5:15 am 05:15 Partly Cloudy 82 27.6 76 24.5 83 83 WSW 8 13 29.95 1014 10 16 0.00 0.00
5:35 am 05:35 Clear 82 27.5 76 24.6 84 84 WSW 8 13 29.96 1014 10 16 0.00 0.00
6:00 am 06:00 Mostly Clear 82 28 75 24 79 79 WSW 7 11 29.95 1014 10 16 0.00 0.00
6:45 am 06:45 Mostly Sunny 82 28 75 24 79 79 W 9 15 29.98 1015 10 16 0.00 0.00
7:45 am 07:45 Mostly Sunny 82 28 75 24 79 79 W 9 15 30.00 1016 10 16 0.00 0.00
8:45 am 08:45 Partly Cloudy 84 29 75 24 74 74 W 7 11 30.01 1016 10 16 0.00 0.00
9:55 am 09:55 Mostly Sunny 86 30 75 24 70 70 W 8 13 30.01 1016 10 16 0.00 0.00
10:45 am 10:45 Mostly Cloudy 88 31 75 24 66 66 WNW 10 17 30.02 1017 10 16 0.00 0.00
11:50 am 11:50 Partly Cloudy 90 32 75 24 63 63 WNW 8 13 30.00 1016 10 16 0.00 0.00
12:45 pm 12:45 Mostly Cloudy 90 32 75 24 63 63 W 7 11 29.99 1016 10 16 0.00 0.00
1:50 pm 13:50 Mostly Sunny 93 34 72 22 50 50 NNW 8 13 29.97 1015 10 16 0.00 0.00
2:55 pm 14:55 Mostly Sunny 93 34 70 21 47 47 NW 9 15 29.95 1014 10 16 0.00 0.00
3:55 pm 15:55 Partly Cloudy 93 34 70 21 47 47 Calm 29.93 1013 10 16 0.00 0.00
4:55 pm 16:55 Mostly Sunny 95 35 73 23 50 50 SSW 13 20 29.92 1013 10 16 0.00 0.00
5:52 pm 17:52 Mostly Sunny 91 33 77 25 63 63 SSW 14 22 29.92 1013 10 16 0.00 0.00
6:55 pm 18:55 Mostly Sunny 90 32 77 25 67 67 SSW 15 24 29.91 1013 10 16 0.00 0.00
7:53 pm 19:53 Mostly Clear 86 30 77 25 75 75 SW 8 13 29.92 1013 10 16 0.00 0.00
8:55 pm 20:55 Mostly Clear 84 29 77 25 79 79 SW 8 13 29.92 1013 10 16 0.00 0.00
9:50 pm 21:50 Mostly Clear 84 29 75 24 74 74 SW 8 13 29.94 1014 10 16 0.00 0.00
10:15 pm 22:15 Clear 84 28.8 76 24.5 78 78 SW 7 11 29.94 1014 10 16 0.00 0.00
10:35 pm 22:35 Clear 84 28.9 76 24.5 77 77 SW 7 11 29.94 1014 10 16 0.00 0.00
10:55 pm 22:55 Clear 84 28.9 76 24.5 77 77 SW 7 11 29.94 1014 10 16 0.00 0.00
11:15 pm 23:15 Clear 84 28.8 76 24.6 78 78 WSW 7 11 29.95 1014 10 16 0.00 0.00
11:35 pm 23:35 Clear 84 28.9 76 24.7 78 78 SSW 6 9 29.94 1014 10 16 0.00 0.00
11:55 pm 23:55 Clear 83 28.6 76 24.7 79 79 SW 5 7 29.94 1014 10 16 0.00 0.00

Powered by AerisWeather